Antigo, WI

9:24 AM CDT on March 26, 2017 (GMT -0500)
Langlade County

Weather History for KAIG - November, 2013

Change the Weather History Date:

Tuesday, November 26, 2013

  Actual Average Record
Temperature  
Mean Temperature 18 °F -  
Max Temperature 30 °F 33 °F 54 °F (1960)
Min Temperature 6 °F 19 °F -10 °F (1977)
Degree Days  
Heating Degree Days 47    
Moisture  
Dew Point 8 °F    
Average Humidity 67    
Maximum Humidity 86    
Minimum Humidity 50    
Precipitation  
Precipitation 0.00 in - - ()
Sea Level Pressure  
Sea Level Pressure 30.02 in    
Wind  
Wind Speed 12 mph (NW)    
Max Wind Speed 18 mph    
Max Gust Speed 26 mph    
Visibility 10 miles    
Events Snow    
Averages and records for this station are not official NWS values.
T = Trace of Precipitation, MM = Missing Value Source: NWS Daily Summary

Daily Weather History Graph

Daily Weather History Graph

Search for Another Location

Airport or City:

Trip Planner

Search our weather history database for the weather conditions in past years. The results will help you decide how hot, cold, wet, or windy it might be!

Date:

Astronomy

Nov. 26, 2013 Rise Set
Actual Time 7:09 AM CST 4:18 PM CST
Civil Twilight 6:36 AM CST 4:50 PM CST
Nautical Twilight 5:59 AM CST 5:27 PM CST
Astronomical Twilight 5:24 AM CST 6:02 PM CST
Moon No Moon Rise 12:41 PM CST
Length of Visible Light 10h 14m
Length of Day
9h 08m
Last Quarter, 41% of the Moon is Illuminated
Nov 26
Last Quarter
Dec 2
New
Dec 9
First Quarter
Dec 17
Full
Dec 25
Last Quarter

Hourly Weather History & Observations

Time (CST) Temp. Windchill Dew Point Humidity Pressure Visibility Wind Dir Wind Speed Gust Speed Precip Events Conditions
12:15 AM 29.7 °F 20.7 °F 23.0 °F 76% 29.88 in 10.0 mi WSW 10.4 mph - N/A   Overcast
12:35 AM 30.0 °F 22.4 °F 23.0 °F 75% 29.88 in 10.0 mi West 8.1 mph - N/A   Overcast
12:55 AM 30.0 °F 21.7 °F 23.2 °F 76% 29.88 in 10.0 mi WSW 9.2 mph - N/A   Overcast
1:15 AM 30.2 °F 21.9 °F 23.5 °F 76% 29.89 in 10.0 mi West 9.2 mph - N/A   Overcast
1:35 AM 29.5 °F 19.9 °F 22.6 °F 76% 29.90 in 10.0 mi NW 11.5 mph 17.3 mph N/A   Overcast
1:55 AM 29.1 °F 20.6 °F 22.1 °F 75% 29.90 in 10.0 mi NW 9.2 mph - N/A   Overcast
2:15 AM 28.8 °F 16.6 °F 21.2 °F 73% 29.90 in 10.0 mi NW 17.3 mph 21.9 mph N/A   Overcast
2:35 AM 28.2 °F 15.5 °F 18.5 °F 67% 29.90 in 10.0 mi WNW 18.4 mph 24.2 mph N/A   Overcast
2:55 AM 27.5 °F 15.0 °F 17.4 °F 66% 29.91 in 10.0 mi WNW 17.3 mph 21.9 mph N/A   Overcast
3:15 AM 27.1 °F 15.9 °F 16.0 °F 63% 29.91 in 10.0 mi WNW 13.8 mph 20.7 mph N/A   Overcast
3:35 AM 27.0 °F 14.7 °F 15.6 °F 62% 29.91 in 10.0 mi WNW 16.1 mph 20.7 mph N/A   Overcast
3:55 AM 26.6 °F 16.2 °F 14.9 °F 61% 29.92 in 10.0 mi WNW 11.5 mph - N/A   Overcast
4:15 AM 26.2 °F 15.8 °F 14.0 °F 60% 29.92 in 10.0 mi WNW 11.5 mph - N/A   Overcast
4:35 AM 26.1 °F 15.6 °F 14.9 °F 63% 29.93 in 10.0 mi NW 11.5 mph 16.1 mph N/A   Overcast
4:55 AM 24.8 °F 12.4 °F 16.2 °F 70% 29.93 in 10.0 mi WNW 15.0 mph 23.0 mph N/A Snow Light Snow
5:15 AM 23.9 °F 9.9 °F 14.7 °F 68% 29.94 in 10.0 mi WNW 18.4 mph 24.2 mph N/A   Overcast
5:35 AM 22.5 °F 8.0 °F 11.7 °F 63% 29.94 in 10.0 mi WNW 18.4 mph 26.5 mph N/A   Overcast
5:55 AM 21.2 °F 8.3 °F 6.6 °F 53% 29.95 in 10.0 mi WNW 13.8 mph 26.5 mph N/A   Overcast
6:15 AM 21.0 °F 7.1 °F 5.5 °F 51% 29.95 in 10.0 mi NW 16.1 mph 21.9 mph N/A   Overcast
6:35 AM 20.7 °F 8.2 °F 4.8 °F 50% 29.95 in 10.0 mi NW 12.7 mph - N/A   Scattered Clouds
6:55 AM 20.3 °F 8.3 °F 4.8 °F 51% 29.95 in 10.0 mi NW 11.5 mph 17.3 mph N/A   Clear
7:15 AM 20.1 °F 11.3 °F 5.0 °F 52% 29.96 in 10.0 mi NW 6.9 mph - N/A   Clear
7:35 AM 19.9 °F 10.1 °F 5.2 °F 53% 29.97 in 10.0 mi NW 8.1 mph - N/A   Clear
7:55 AM 19.2 °F 8.4 °F 5.0 °F 54% 29.98 in 10.0 mi NW 9.2 mph - N/A   Clear
8:15 AM 18.9 °F 9.8 °F 5.4 °F 56% 29.98 in 10.0 mi WNW 6.9 mph - N/A   Mostly Cloudy
8:35 AM 20.1 °F 10.3 °F 5.9 °F 54% 29.99 in 10.0 mi WNW 8.1 mph - N/A   Mostly Cloudy
8:55 AM 20.1 °F 11.3 °F 5.4 °F 53% 29.99 in 10.0 mi NW 6.9 mph - N/A   Overcast
9:15 AM 21.2 °F 10.1 °F 6.6 °F 53% 29.99 in 10.0 mi WNW 10.4 mph - N/A   Scattered Clouds
9:35 AM 21.6 °F 9.3 °F 7.5 °F 55% 29.99 in 10.0 mi NNW 12.7 mph 21.9 mph N/A   Clear
9:55 AM 22.1 °F 10.6 °F 8.1 °F 55% 29.99 in 10.0 mi NW 11.5 mph 18.4 mph N/A   Clear
10:15 AM 22.5 °F 8.0 °F 9.1 °F 57% 29.98 in 10.0 mi NW 18.4 mph 25.3 mph N/A   Scattered Clouds
10:35 AM 21.6 °F 8.8 °F 9.7 °F 60% 29.98 in 10.0 mi NW 13.8 mph 18.4 mph N/A   Mostly Cloudy
10:55 AM 23.2 °F 9.0 °F 9.9 °F 57% 29.98 in 10.0 mi WNW 18.4 mph 21.9 mph N/A   Overcast
11:15 AM 22.1 °F 10.0 °F 10.8 °F 62% 29.98 in 10.0 mi WNW 12.7 mph 17.3 mph N/A   Overcast
11:35 AM 21.6 °F 9.3 °F 10.8 °F 63% 29.97 in 10.0 mi West 12.7 mph 17.3 mph N/A   Overcast
11:55 AM 20.7 °F 8.2 °F 13.5 °F 74% 29.98 in 2.0 mi NW 12.7 mph 18.4 mph N/A Snow Light Snow
12:15 PM 17.4 °F 1.5 °F 12.6 °F 81% 29.98 in 0.8 mi NNW 18.4 mph 21.9 mph N/A Snow Light Snow
12:35 PM 18.1 °F 2.4 °F 10.9 °F 73% 29.99 in 5.0 mi NNW 18.4 mph - N/A Snow Light Snow
12:55 PM 17.8 °F 2.4 °F 8.8 °F 68% 30.00 in 10.0 mi NW 17.3 mph 20.7 mph N/A   Overcast
1:15 PM 17.4 °F 2.4 °F 7.2 °F 64% 30.00 in 10.0 mi NW 16.1 mph - N/A   Overcast
1:35 PM 16.7 °F 2.0 °F 6.4 °F 64% 30.01 in 10.0 mi NW 15.0 mph 23.0 mph N/A   Overcast
1:55 PM 16.0 °F 1.7 °F 4.8 °F 61% 30.02 in 10.0 mi NW 13.8 mph 24.2 mph N/A   Overcast
2:15 PM 15.8 °F 1.4 °F 4.5 °F 61% 30.03 in 10.0 mi NW 13.8 mph - N/A   Overcast
2:35 PM 15.8 °F 3.4 °F 3.6 °F 59% 30.04 in 10.0 mi NW 10.4 mph - N/A   Overcast
2:55 PM 16.9 °F 2.8 °F 5.0 °F 60% 30.05 in 10.0 mi North 13.8 mph - N/A   Overcast
3:15 PM 15.6 °F 2.5 °F 4.1 °F 60% 30.06 in 10.0 mi NNW 11.5 mph - N/A   Overcast
3:35 PM 14.9 °F 2.3 °F 5.0 °F 65% 30.06 in 10.0 mi NNW 10.4 mph - N/A   Overcast
3:55 PM 14.7 °F 1.4 °F 3.0 °F 60% 30.07 in 10.0 mi NNW 11.5 mph 21.9 mph N/A   Scattered Clouds
4:15 PM 14.0 °F -0.2 °F 3.2 °F 62% 30.08 in 10.0 mi NNW 12.7 mph 16.1 mph N/A   Scattered Clouds
4:35 PM 13.6 °F -2.4 °F 2.8 °F 62% 30.09 in 10.0 mi North 16.1 mph - N/A   Scattered Clouds
4:55 PM 13.1 °F -1.4 °F 3.9 °F 67% 30.10 in 10.0 mi NNW 12.7 mph - N/A   Mostly Cloudy
5:15 PM 12.2 °F -0.2 °F 3.7 °F 69% 30.11 in 10.0 mi NNW 9.2 mph - N/A   Scattered Clouds
5:35 PM 12.2 °F -1.8 °F 5.4 °F 74% 30.12 in 7.0 mi NW 11.5 mph 19.6 mph N/A   Mostly Cloudy
5:55 PM 11.1 °F -2.4 °F 4.8 °F 76% 30.12 in 10.0 mi NW 10.4 mph - N/A   Scattered Clouds
6:15 PM 10.9 °F -1.8 °F 2.1 °F 68% 30.13 in 10.0 mi NW 9.2 mph - N/A   Clear
6:35 PM 10.2 °F -3.5 °F 1.4 °F 68% 30.12 in 10.0 mi NW 10.4 mph - N/A   Clear
6:55 PM 9.9 °F -3.1 °F 1.2 °F 68% 30.13 in 10.0 mi NW 9.2 mph - N/A   Clear
7:15 PM 9.5 °F -3.5 °F 1.2 °F 69% 30.14 in 10.0 mi NW 9.2 mph - N/A   Clear
7:35 PM 9.1 °F -3.0 °F 1.2 °F 70% 30.14 in 10.0 mi NW 8.1 mph - N/A   Clear
7:55 PM 9.0 °F -4.2 °F 1.4 °F 71% 30.14 in 10.0 mi NW 9.2 mph - N/A   Clear
8:15 PM 8.6 °F -5.5 °F 2.3 °F 76% 30.14 in 10.0 mi NW 10.4 mph 16.1 mph N/A   Clear
8:35 PM 8.4 °F -4.9 °F 2.7 °F 77% 30.13 in 10.0 mi WNW 9.2 mph - N/A   Clear
8:55 PM 8.1 °F -7.7 °F 2.8 °F 79% 30.13 in 10.0 mi NW 12.7 mph - N/A   Clear
9:15 PM 8.2 °F -6.8 °F 3.2 °F 80% 30.14 in 10.0 mi WNW 11.5 mph - N/A   Clear
9:35 PM 8.1 °F -6.2 °F 3.2 °F 81% 30.14 in 10.0 mi WNW 10.4 mph 19.6 mph N/A   Clear
9:55 PM 7.7 °F -7.4 °F 3.2 °F 82% 30.14 in 10.0 mi WNW 11.5 mph 16.1 mph N/A   Clear
10:15 PM 7.5 °F -7.7 °F 3.4 °F 83% 30.14 in 10.0 mi NW 11.5 mph - N/A   Clear
10:35 PM 7.3 °F -7.9 °F 3.2 °F 83% 30.14 in 10.0 mi NW 11.5 mph - N/A Snow Light Snow
10:55 PM 7.2 °F -8.1 °F 3.2 °F 84% 30.14 in 10.0 mi WNW 11.5 mph - N/A   Clear
11:15 PM 6.8 °F -7.8 °F 3.2 °F 85% 30.15 in 10.0 mi WNW 10.4 mph - N/A   Clear
11:35 PM 6.8 °F -6.9 °F 3.2 °F 85% 30.15 in 10.0 mi NW 9.2 mph - N/A   Clear
11:55 PM 6.6 °F -6.1 °F 3.2 °F 86% 30.15 in 10.0 mi NW 8.1 mph - N/A   Scattered Clouds